Location: Staunton
(38.1490°N, 79.0720°W)
Time: 23:40:13
(UTC-05:00)

ISS - Pass Details

Date: 20 January 2021
Orbit: 418 x 421 km, 51.6° (Epoch: 23 January)

Event Time Altitude Azimuth Distance (km) Brightness Sun altitude
Rises 18:50:02 0° 251° (WSW) 2,358 1.8 -16.4°
Reaches altitude 10° 18:52:15 10° 261° (W) 1,498 0.4 -16.8°
Maximum altitude 18:55:21 33° 328° (NNW) 722 -2.4 -17.4°
Enters shadow 18:56:36 25° 10° (N) 897 -2.3 -17.7°
